Portland, ME

12:21 AM EDT on August 17, 2017 (GMT -0400)
Portland International

Weather History for KPWM - May, 2014

Change the Weather History Date:

Wednesday, May 14, 2014

  Actual Average Record
Temperature  
Mean Temperature 50 °F 53 °F  
Max Temperature 55 °F 63 °F 81 °F (1961)
Min Temperature 45 °F 44 °F 28 °F (1951)
Degree Days  
Heating Degree Days 15 12  
Month to date heating degree days 153 193  
Since 1 July heating degree days 7204 6841  
Cooling Degree Days 0 0  
Month to date cooling degree days 0 0  
Year to date cooling degree days 0 0  
Moisture  
Dew Point 43 °F    
Average Humidity 79    
Maximum Humidity 86    
Minimum Humidity 71    
Precipitation  
Precipitation 0.00 in 0.12 in 0.72 in (2017)
Month to date precipitation 1.39 1.82  
Year to date precipitation 16.74 17.01  
Snow  
Snow 0.00 in 0.00 in 0.00 in (2002)
Month to date snowfall T 0.1  
Since 1 July snowfall 83.4 62.0  
Snow Depth 0.00 in    
Sea Level Pressure  
Sea Level Pressure 30.33 in    
Wind  
Wind Speed 8 mph (SSE)    
Max Wind Speed 16 mph    
Max Gust Speed 22 mph    
Visibility 10 miles    
Events      
T = Trace of Precipitation, MM = Missing Value Source: NWS Daily Summary

Daily Weather History Graph

Daily Weather History Graph

Search for Another Location

Airport or City:

Trip Planner

Search our weather history database for the weather conditions in past years. The results will help you decide how hot, cold, wet, or windy it might be!

Date:

Astronomy

May. 14, 2014 Rise Set
Actual Time 5:17 AM EDT 7:58 PM EDT
Civil Twilight 4:44 AM EDT 8:31 PM EDT
Nautical Twilight 4:02 AM EDT 9:13 PM EDT
Astronomical Twilight 3:15 AM EDT 10:01 PM EDT
Moon 7:59 PM EDT (5/14) 5:15 AM EDT (5/14)
Length of Visible Light 15h 47m
Length of Day
14h 41m
Full, 100% of the Moon is Illuminated
May 14
Full
May 14
Full
May 21
Last Quarter
May 28
New
Jun 5
First Quarter

Hourly Weather History & Observations

Time (EDT) Temp. Windchill Dew Point Humidity Pressure Visibility Wind Dir Wind Speed Gust Speed Precip Events Conditions
12:51 AM 45.0 °F - 39.0 °F 80% 30.33 in 10.0 mi Calm Calm - N/A   Overcast
1:51 AM 46.4 °F 45.2 °F 37.4 °F 71% 30.32 in 10.0 mi SSE 3.5 mph - N/A   Overcast
2:51 AM 46.0 °F 43.9 °F 39.9 °F 79% 30.32 in 10.0 mi SSE 4.6 mph - N/A   Overcast
3:51 AM 46.0 °F 44.8 °F 37.9 °F 73% 30.33 in 10.0 mi South 3.5 mph - N/A   Overcast
4:51 AM 46.0 °F 43.1 °F 39.0 °F 76% 30.32 in 10.0 mi South 5.8 mph - N/A   Overcast
5:51 AM 46.0 °F 42.5 °F 39.9 °F 79% 30.32 in 10.0 mi SSW 6.9 mph - N/A   Overcast
6:51 AM 46.9 °F - 41.0 °F 80% 30.33 in 10.0 mi South 6.9 mph - N/A   Overcast
7:32 AM 48.0 °F - 42.1 °F 80% 30.33 in 10.0 mi South 8.1 mph - N/A   Mostly Cloudy
7:51 AM 48.0 °F - 42.1 °F 80% 30.33 in 10.0 mi SSE 10.4 mph - N/A   Mostly Cloudy
8:51 AM 48.9 °F - 42.1 °F 77% 30.36 in 10.0 mi South 8.1 mph - N/A   Mostly Cloudy
9:51 AM 51.1 °F - 42.1 °F 71% 30.36 in 10.0 mi South 6.9 mph - N/A   Mostly Cloudy
11:51 AM 52.0 °F - 43.0 °F 71% 30.34 in 10.0 mi SSE 12.7 mph - N/A   Mostly Cloudy
12:51 PM 53.6 °F - 44.6 °F 72% 30.35 in 10.0 mi SSE 12.7 mph - N/A   Mostly Cloudy
1:51 PM 53.1 °F - 44.1 °F 71% 30.34 in 10.0 mi SSE 13.8 mph - N/A   Mostly Cloudy
2:51 PM 53.1 °F - 44.1 °F 71% 30.34 in 10.0 mi South 13.8 mph 20.7 mph N/A   Mostly Cloudy
3:51 PM 53.1 °F - 46.0 °F 77% 30.33 in 10.0 mi SSE 13.8 mph 18.4 mph N/A   Mostly Cloudy
4:15 PM 52.0 °F - 46.0 °F 80% 30.32 in 10.0 mi SSE 15.0 mph - N/A   Overcast
4:51 PM 51.8 °F - 44.6 °F 76% 30.32 in 10.0 mi South 12.7 mph - N/A   Mostly Cloudy
5:51 PM 50.0 °F - 45.0 °F 83% 30.32 in 10.0 mi South 13.8 mph 18.4 mph N/A   Mostly Cloudy
6:51 PM 50.0 °F - 45.0 °F 83% 30.32 in 10.0 mi SSE 9.2 mph - N/A   Overcast
7:51 PM 48.9 °F - 45.0 °F 86% 30.33 in 10.0 mi South 5.8 mph - N/A   Mostly Cloudy
8:51 PM 48.0 °F - 45.0 °F 89% 30.33 in 10.0 mi SSE 3.5 mph - N/A   Mostly Cloudy
9:51 PM 48.0 °F - 45.0 °F 89% 30.33 in 10.0 mi ESE 3.5 mph - N/A   Partly Cloudy
10:51 PM 48.2 °F - 44.6 °F 87% 30.33 in 10.0 mi Calm Calm - N/A   Clear
11:15 PM 46.9 °F - 45.0 °F 93% 30.32 in 10.0 mi East 3.5 mph - N/A   Scattered Clouds
11:26 PM 48.0 °F - 45.0 °F 89% 30.32 in 10.0 mi Calm Calm - N/A   Mostly Cloudy
11:51 PM 48.0 °F - 45.0 °F 89% 30.31 in 10.0 mi East 3.5 mph - N/A   Overcast